Location: Carnetin
(48.9010°N, 2.7059°E)
Time: 12:07:15
(UTC+00:00)

Lacrosse 4 Rocket - Pass Details

Date: 24 October 2021
Orbit: 537 x 619 km, 68.0° (Epoch: 05 December)

Event Time Altitude Azimuth Distance (km) Brightness Sun altitude
Rises 17:25:57 0° 329° (NNW) 2,802 5.2 -7.8°
Reaches altitude 10° 17:28:14 10° 336° (NNW) 1,914 4.3 -8.2°
Maximum altitude 17:32:24 48° 51° (NE) 782 1.7 -8.9°
Drops below altitude 10° 17:36:39 10° 127° (SE) 1,948 3.7 -9.6°
Enters shadow 17:38:32 - 132° (SE) 2,681 4.4 -9.9°
